Total_Precipitation_Accumulation
0.23 0.31 0.62 0.69 0.68 0.59 0.56 0.54 0.57 0.54 0.52 0.56 0.59 0.61 0.59 0.54 0.49 0.46 0.44 0.49 0.59 0.75 0.85 0.89 0.85 0.79 0.72 0.66 0.51 0.37 0.32 0.28 0.23 0.19 0.18 0.23 0.32 0.33 0.28 0.25 0.27 0.33 0.44
0.21 0.34 0.65 0.75 0.79 0.74 0.69 0.58 0.50 0.51 0.52 0.56 0.62 0.62 0.63 0.58 0.52 0.46 0.46 0.55 0.67 0.81 0.86 0.86 0.76 0.62 0.58 0.51 0.37 0.28 0.24 0.18 0.13 0.09 0.07 0.11 0.20 0.30 0.28 0.24 0.28 0.38 0.45
0.24 0.40 0.63 0.77 0.82 0.83 0.74 0.60 0.49 0.49 0.55 0.62 0.64 0.65 0.68 0.64 0.56 0.56 0.57 0.65 0.76 0.89 0.84 0.74 0.64 0.50 0.43 0.34 0.27 0.23 0.20 0.16 0.12 0.10 0.10 0.14 0.21 0.31 0.30 0.28 0.35 0.43 0.48
0.33 0.51 0.63 0.81 0.85 0.85 0.79 0.67 0.59 0.55 0.59 0.66 0.70 0.74 0.78 0.73 0.65 0.69 0.69 0.69 0.74 0.80 0.75 0.62 0.59 0.46 0.35 0.29 0.26 0.26 0.25 0.20 0.15 0.14 0.17 0.18 0.22 0.38 0.40 0.40 0.49 0.50 0.48
0.51 0.63 0.80 0.93 0.92 0.91 0.84 0.78 0.73 0.68 0.69 0.74 0.77 0.85 0.87 0.86 0.81 0.85 0.79 0.71 0.66 0.62 0.58 0.50 0.45 0.39 0.32 0.29 0.27 0.28 0.25 0.21 0.16 0.15 0.17 0.20 0.27 0.53 0.52 0.47 0.45 0.43 0.39
0.70 0.80 1.02 1.18 1.15 1.06 0.96 0.90 0.88 0.83 0.80 0.81 0.84 0.92 0.99 1.01 0.98 0.94 0.79 0.64 0.56 0.52 0.51 0.47 0.38 0.33 0.31 0.28 0.27 0.26 0.23 0.18 0.15 0.15 0.17 0.22 0.36 0.63 0.58 0.47 0.43 0.42 0.43
0.82 0.98 1.22 1.39 1.40 1.25 1.12 1.06 1.06 1.04 1.03 0.98 0.95 1.02 1.12 1.12 1.04 0.97 0.75 0.55 0.47 0.48 0.48 0.47 0.43 0.38 0.35 0.31 0.29 0.26 0.22 0.16 0.13 0.13 0.17 0.26 0.43 0.65 0.61 0.55 0.50 0.49 0.49
0.98 1.14 1.38 1.55 1.49 1.40 1.36 1.29 1.29 1.29 1.23 1.16 1.12 1.22 1.26 1.20 1.07 0.94 0.79 0.63 0.50 0.46 0.46 0.45 0.46 0.43 0.38 0.35 0.33 0.29 0.19 0.14 0.12 0.13 0.19 0.28 0.42 0.59 0.59 0.54 0.52 0.52 0.49
1.28 1.44 1.60 1.65 1.53 1.43 1.39 1.39 1.40 1.45 1.46 1.34 1.23 1.25 1.25 1.18 1.04 0.94 0.76 0.70 0.60 0.54 0.50 0.45 0.43 0.45 0.42 0.37 0.33 0.27 0.18 0.12 0.11 0.12 0.17 0.28 0.43 0.60 0.59 0.54 0.50 0.48 0.46
1.76 1.81 1.85 1.90 1.79 1.57 1.43 1.48 1.46 1.42 1.38 1.38 1.29 1.12 1.06 0.99 0.90 0.87 0.67 0.64 0.63 0.58 0.51 0.46 0.43 0.45 0.42 0.33 0.29 0.24 0.18 0.15 0.14 0.12 0.18 0.26 0.44 0.56 0.55 0.56 0.49 0.49 0.49
2.22 2.25 2.16 2.16 2.08 1.98 1.77 1.63 1.64 1.50 1.38 1.31 1.25 1.07 1.00 1.06 0.94 0.74 0.54 0.51 0.53 0.53 0.51 0.47 0.43 0.41 0.34 0.27 0.23 0.21 0.21 0.19 0.17 0.18 0.20 0.27 0.47 0.59 0.61 0.59 0.53 0.53 0.53
2.41 2.45 2.39 2.36 2.33 2.30 2.00 1.83 1.84 1.66 1.46 1.28 1.13 1.13 1.07 1.06 1.02 0.78 0.62 0.50 0.52 0.50 0.50 0.53 0.51 0.43 0.32 0.26 0.21 0.20 0.24 0.24 0.25 0.21 0.21 0.27 0.45 0.59 0.69 0.69 0.58 0.51 0.52
2.73 2.71 2.60 2.55 2.54 2.52 2.37 2.00 1.87 1.71 1.61 1.47 1.25 1.21 1.17 1.19 1.13 0.98 0.85 0.71 0.64 0.52 0.52 0.54 0.55 0.44 0.36 0.32 0.27 0.22 0.21 0.23 0.27 0.24 0.20 0.23 0.40 0.58 0.69 0.72 0.63 0.54 0.52
2.79 2.90 2.78 2.69 2.63 2.62 2.55 2.29 2.00 1.80 1.62 1.49 1.33 1.22 1.26 1.26 1.15 1.01 0.88 0.80 0.73 0.59 0.55 0.55 0.52 0.45 0.37 0.33 0.30 0.28 0.27 0.27 0.26 0.27 0.24 0.22 0.34 0.51 0.65 0.72 0.70 0.66 0.63
2.66 2.94 2.98 2.90 2.75 2.60 2.60 2.49 2.17 1.87 1.63 1.56 1.53 1.37 1.22 1.17 1.10 1.05 0.91 0.89 0.80 0.67 0.62 0.58 0.54 0.52 0.46 0.41 0.34 0.30 0.29 0.28 0.26 0.26 0.24 0.21 0.24 0.39 0.61 0.74 0.80 0.85 0.89
2.53 2.80 3.00 3.12 3.03 2.78 2.54 2.44 2.31 2.07 1.86 1.79 1.69 1.53 1.41 1.29 1.20 1.11 0.98 0.92 0.86 0.73 0.64 0.63 0.60 0.58 0.53 0.47 0.40 0.35 0.31 0.30 0.28 0.27 0.24 0.23 0.25 0.31 0.44 0.62 0.78 0.94 1.05
2.63 2.75 2.95 3.15 3.29 3.13 2.83 2.61 2.48 2.30 2.09 1.94 1.84 1.83 1.70 1.50 1.34 1.26 1.11 0.97 0.90 0.88 0.84 0.80 0.76 0.65 0.55 0.49 0.45 0.41 0.38 0.35 0.32 0.28 0.25 0.23 0.25 0.27 0.32 0.47 0.67 0.88 1.02
2.96 2.96 3.11 3.12 3.28 3.32 3.19 2.92 2.64 2.48 2.29 2.03 1.83 1.83 1.84 1.69 1.54 1.44 1.34 1.19 1.08 1.03 1.01 0.90 0.80 0.76 0.62 0.52 0.46 0.41 0.38 0.36 0.33 0.30 0.26 0.22 0.20 0.22 0.27 0.35 0.47 0.66 0.86
3.07 3.20 3.37 3.36 3.22 3.30 3.41 3.30 2.91 2.62 2.40 2.21 1.95 1.82 1.84 1.84 1.71 1.53 1.36 1.32 1.33 1.23 1.10 1.00 0.84 0.84 0.79 0.64 0.54 0.48 0.42 0.38 0.34 0.31 0.29 0.26 0.22 0.21 0.22 0.27 0.33 0.40 0.56
3.10 3.18 3.31 3.45 3.50 3.53 3.60 3.65 3.39 3.00 2.66 2.44 2.25 2.05 1.94 1.96 1.97 1.83 1.56 1.44 1.45 1.41 1.32 1.20 1.07 0.95 0.89 0.85 0.74 0.57 0.47 0.42 0.38 0.34 0.31 0.28 0.26 0.24 0.23 0.24 0.27 0.29 0.35
2.93 3.04 3.05 3.17 3.37 3.49 3.58 3.57 3.41 3.05 2.86 2.67 2.45 2.31 2.19 2.06 2.06 2.09 1.87 1.72 1.67 1.59 1.52 1.49 1.44 1.29 1.08 1.04 0.98 0.77 0.56 0.46 0.42 0.36 0.33 0.32 0.30 0.30 0.30 0.29 0.30 0.32 0.35
2.47 2.83 2.90 2.98 3.07 3.13 3.18 3.38 3.48 3.33 3.01 2.86 2.76 2.57 2.35 2.19 2.09 2.11 2.13 2.01 1.81 1.75 1.72 1.65 1.56 1.41 1.28 1.21 1.14 1.08 0.90 0.71 0.53 0.43 0.39 0.36 0.34 0.33 0.34 0.36 0.37 0.39 0.40
2.16 2.60 2.79 2.92 3.04 3.00 3.13 3.54 3.76 3.75 3.40 3.08 2.87 2.77 2.60 2.38 2.26 2.12 2.02 2.05 2.00 1.90 1.83 1.80 1.77 1.73 1.59 1.45 1.33 1.38 1.20 0.92 0.70 0.55 0.48 0.45 0.44 0.43 0.41 0.41 0.44 0.48 0.48
1.86 2.21 2.48 2.81 3.05 3.16 3.23 3.40 3.43 3.25 3.04 2.75 2.66 2.64 2.65 2.58 2.37 2.24 2.17 2.10 2.05 1.98 1.87 1.88 1.89 1.87 1.86 1.74 1.58 1.46 1.32 1.10 1.01 0.79 0.61 0.56 0.58 0.58 0.57 0.53 0.51 0.53 0.55
1.63 1.93 2.11 2.37 2.69 2.94 3.08 3.25 3.36 3.16 2.89 2.73 2.69 2.66 2.62 2.60 2.48 2.33 2.24 2.21 2.17 2.08 1.98 1.94 1.96 1.92 1.88 1.84 1.75 1.61 1.51 1.30 1.12 1.05 0.85 0.70 0.70 0.65 0.65 0.62 0.60 0.58 0.58
1.38 1.70 1.86 2.06 2.31 2.61 2.79 2.98 3.21 3.08 2.81 2.54 2.47 2.48 2.43 2.41 2.33 2.22 2.20 2.17 2.12 2.06 1.95 1.87 1.87 1.88 1.85 1.76 1.68 1.59 1.54 1.44 1.27 1.22 1.11 0.90 0.86 0.80 0.78 0.77 0.73 0.69 0.65